Retour au catalogue

ATLAS CENTAUR R/B

ActifGTO
NORAD 4882·ROCKET BODY·🇺🇸 United States

Lancé Jan 26, 1971 depuis Cape Canaveral Space Force Station

Loading…

TLE

VieillissantSource: Space-Track

Époque: Sep 14, 2026, 06:41 UTC

1 04882U 71006B   26257.27909648 -.00000054  00000-0  10612-2 0  9995
2 04882  27.4828 226.4059 7173812 105.5968 338.0007  2.20763350445165

Suivez ATLAS CENTAUR R/B en temps réel avec AllMySat

Download on the App Store